Time,TemperatureF,DewpointF,PressureIn,WindDirection,WindDirectionDegrees,WindSpeedMPH,WindSpeedGustMPH,Humidity,HourlyPrecipIn,Conditions,Clouds,dailyrainin,SoftwareType,DateUTC
2013-04-02 00:00:00,34.9,13.6,29.81,SW,221,6.0,9.0,41,0.00,,,0.15,WeatherCatV1.11B39,2013-04-02 04:00:00,
2013-04-02 00:01:00,34.9,13.6,29.81,SSW,203,4.0,6.0,41,0.00,,,0.00,WeatherCatV1.11B39,2013-04-02 04:01:00,
2013-04-02 00:06:00,34.8,13.5,29.81,SSW,211,3.0,3.0,41,0.00,,,0.00,WeatherCatV1.11B39,2013-04-02 04:06:00,
2013-04-02 00:11:00,34.8,13.5,29.81,NNW,340,2.0,7.0,41,0.00,,,0.00,WeatherCatV1.11B39,2013-04-02 04:11:00,
2013-04-02 00:16:00,34.6,13.9,29.81,SW,222,0.0,5.0,42,0.00,,,0.00,WeatherCatV1.11B39,2013-04-02 04:16:00,
2013-04-02 00:21:00,34.4,14.2,29.82,SSW,203,2.0,2.0,43,0.00,,,0.00,WeatherCatV1.11B39,2013-04-02 04:21:00,
2013-04-02 00:26:00,34.3,14.7,29.82,ESE,102,1.0,3.0,44,0.00,,,0.00,WeatherCatV1.11B39,2013-04-02 04:26:00,
2013-04-02 00:31:00,34.1,14.0,29.82,SW,218,3.0,6.0,43,0.00,,,0.00,WeatherCatV1.11B39,2013-04-02 04:31:00,
2013-04-02 00:36:00,34.1,14.5,29.82,NNW,337,0.0,3.0,44,0.00,,,0.00,WeatherCatV1.11B39,2013-04-02 04:36:00,
2013-04-02 00:41:00,33.9,14.8,29.83,North,351,0.0,1.0,45,0.00,,,0.00,WeatherCatV1.11B39,2013-04-02 04:41:00,
2013-04-02 00:46:00,33.8,14.7,29.83,SSW,212,0.0,2.0,45,0.00,,,0.00,WeatherCatV1.11B39,2013-04-02 04:46:00,
2013-04-02 00:51:00,33.6,14.6,29.83,NNW,338,0.0,1.0,45,0.00,,,0.00,WeatherCatV1.11B39,2013-04-02 04:51:00,
2013-04-02 00:56:00,33.5,15.0,29.83,SW,235,0.0,1.0,46,0.00,,,0.00,WeatherCatV1.11B39,2013-04-02 04:56:00,
2013-04-02 01:01:00,33.2,14.7,29.83,SW,224,0.0,1.0,46,0.00,,,0.00,WeatherCatV1.11B39,2013-04-02 05:01:00,
2013-04-02 01:06:00,33.1,15.1,29.84,SSW,205,1.0,2.0,47,0.00,,,0.00,WeatherCatV1.11B39,2013-04-02 05:06:00,
2013-04-02 01:11:00,33.2,14.7,29.84,NNW,329,1.0,3.0,46,0.00,,,0.00,WeatherCatV1.11B39,2013-04-02 05:11:00,
2013-04-02 01:16:00,33.2,14.7,29.84,WSW,245,1.0,4.0,46,0.00,,,0.00,WeatherCatV1.11B39,2013-04-02 05:16:00,
2013-04-02 01:21:00,33.2,14.7,29.84,WSW,243,0.0,1.0,46,0.00,,,0.00,WeatherCatV1.11B39,2013-04-02 05:21:00,
2013-04-02 01:26:00,33.1,14.6,29.84,ESE,110,0.0,4.0,46,0.00,,,0.00,WeatherCatV1.11B39,2013-04-02 05:26:00,
2013-04-02 01:31:00,33.0,14.5,29.84,SW,234,0.0,2.0,46,0.00,,,0.00,WeatherCatV1.11B39,2013-04-02 05:31:00,
2013-04-02 01:36:00,32.9,14.4,29.84,SW,227,2.0,5.0,46,0.00,,,0.00,WeatherCatV1.11B39,2013-04-02 05:36:00,
2013-04-02 01:41:00,32.8,14.3,29.84,North,356,2.0,3.0,46,0.00,,,0.00,WeatherCatV1.11B39,2013-04-02 05:41:00,
2013-04-02 01:56:00,32.4,14.4,29.84,South,191,2.0,2.0,47,0.00,,,0.00,WeatherCatV1.11B39,2013-04-02 05:56:00,
2013-04-02 02:01:00,32.4,14.0,29.84,SW,221,0.0,2.0,46,0.00,,,0.00,WeatherCatV1.11B39,2013-04-02 06:01:00,
2013-04-02 02:06:00,32.3,13.4,29.84,South,169,0.0,4.0,45,0.00,,,0.00,WeatherCatV1.11B39,2013-04-02 06:06:00,
2013-04-02 02:11:00,32.2,13.3,29.84,SSW,205,0.0,3.0,45,0.00,,,0.00,WeatherCatV1.11B39,2013-04-02 06:11:00,
2013-04-02 02:16:00,32.2,13.3,29.84,WSW,238,0.0,1.0,45,0.00,,,0.00,WeatherCatV1.11B39,2013-04-02 06:16:00,
2013-04-02 02:21:00,32.0,13.6,29.84,SSE,156,0.0,0.0,46,0.00,,,0.00,WeatherCatV1.11B39,2013-04-02 06:21:00,
2013-04-02 02:26:00,31.8,13.4,29.84,SSE,158,1.0,2.0,46,0.00,,,0.00,WeatherCatV1.11B39,2013-04-02 06:26:00,
2013-04-02 02:31:00,31.7,13.3,29.84,SSW,198,1.0,5.0,46,0.00,,,0.00,WeatherCatV1.11B39,2013-04-02 06:31:00,
2013-04-02 02:36:00,31.8,13.4,29.84,SSW,199,1.0,1.0,46,0.00,,,0.00,WeatherCatV1.11B39,2013-04-02 06:36:00,
2013-04-02 02:41:00,31.7,12.8,29.84,WSW,257,3.0,5.0,45,0.00,,,0.00,WeatherCatV1.11B39,2013-04-02 06:41:00,
2013-04-02 02:46:00,31.7,12.8,29.84,NNW,328,0.0,3.0,45,0.00,,,0.00,WeatherCatV1.11B39,2013-04-02 06:46:00,
2013-04-02 02:51:00,31.7,12.8,29.84,WSW,256,0.0,5.0,45,0.00,,,0.00,WeatherCatV1.11B39,2013-04-02 06:51:00,
2013-04-02 02:56:00,31.7,12.8,29.84,SW,235,1.0,6.0,45,0.00,,,0.00,WeatherCatV1.11B39,2013-04-02 06:56:00,
2013-04-02 03:01:00,31.6,12.7,29.84,SSW,204,2.0,5.0,45,0.00,,,0.00,WeatherCatV1.11B39,2013-04-02 07:01:00,
2013-04-02 03:06:00,31.5,12.6,29.84,East,82,0.0,3.0,45,0.00,,,0.00,WeatherCatV1.11B39,2013-04-02 07:06:00,
2013-04-02 03:11:00,31.4,13.0,29.84,SE,145,1.0,1.0,46,0.00,,,0.00,WeatherCatV1.11B39,2013-04-02 07:11:00,
2013-04-02 03:16:00,31.4,12.5,29.84,NNE,26,2.0,2.0,45,0.00,,,0.00,WeatherCatV1.11B39,2013-04-02 07:16:00,
2013-04-02 03:21:00,31.2,12.9,29.84,North,11,1.0,2.0,46,0.00,,,0.00,WeatherCatV1.11B39,2013-04-02 07:21:00,
2013-04-02 03:26:00,31.0,12.7,29.84,South,181,1.0,3.0,46,0.00,,,0.00,WeatherCatV1.11B39,2013-04-02 07:26:00,
2013-04-02 03:31:00,31.1,12.3,29.84,ENE,65,1.0,2.0,45,0.00,,,0.00,WeatherCatV1.11B39,2013-04-02 07:31:00,
2013-04-02 03:36:00,31.0,12.7,29.84,SW,235,3.0,4.0,46,0.00,,,0.00,WeatherCatV1.11B39,2013-04-02 07:36:00,
2013-04-02 03:41:00,30.9,12.6,29.85,NNW,338,0.0,1.0,46,0.00,,,0.00,WeatherCatV1.11B39,2013-04-02 07:41:00,
2013-04-02 03:46:00,30.7,12.4,29.85,SSW,197,0.0,1.0,46,0.00,,,0.00,WeatherCatV1.11B39,2013-04-02 07:46:00,
2013-04-02 03:51:00,30.7,12.4,29.85,NNE,22,1.0,3.0,46,0.00,,,0.00,WeatherCatV1.11B39,2013-04-02 07:51:00,
2013-04-02 03:56:00,30.6,12.3,29.85,South,181,1.0,3.0,46,0.00,,,0.00,WeatherCatV1.11B39,2013-04-02 07:56:00,
2013-04-02 04:01:00,30.6,12.3,29.85,WSW,240,0.0,3.0,46,0.00,,,0.00,WeatherCatV1.11B39,2013-04-02 08:01:00,
2013-04-02 04:06:00,30.5,12.7,29.85,SSW,200,0.0,1.0,47,0.00,,,0.00,WeatherCatV1.11B39,2013-04-02 08:06:00,
2013-04-02 04:11:00,30.4,12.1,29.85,West,270,0.0,3.0,46,0.00,,,0.00,WeatherCatV1.11B39,2013-04-02 08:11:00,
2013-04-02 04:16:00,30.4,12.1,29.85,SE,137,1.0,2.0,46,0.00,,,0.00,WeatherCatV1.11B39,2013-04-02 08:16:00,
2013-04-02 04:21:00,30.5,12.7,29.85,SSW,203,1.0,2.0,47,0.00,,,0.00,WeatherCatV1.11B39,2013-04-02 08:21:00,
2013-04-02 04:26:00,30.3,12.5,29.85,WSW,243,0.0,2.0,47,0.00,,,0.00,WeatherCatV1.11B39,2013-04-02 08:26:00,
2013-04-02 04:31:00,30.2,12.4,29.85,SSW,195,1.0,1.0,47,0.00,,,0.00,WeatherCatV1.11B39,2013-04-02 08:31:00,
2013-04-02 04:36:00,30.1,12.3,29.85,North,356,0.0,2.0,47,0.00,,,0.00,WeatherCatV1.11B39,2013-04-02 08:36:00,
2013-04-02 04:41:00,30.0,12.2,29.86,SSE,148,1.0,1.0,47,0.00,,,0.00,WeatherCatV1.11B39,2013-04-02 08:41:00,
2013-04-02 04:46:00,30.0,12.2,29.86,East,94,0.0,1.0,47,0.00,,,0.00,WeatherCatV1.11B39,2013-04-02 08:46:00,
2013-04-02 04:51:00,29.9,12.1,29.86,SW,221,0.0,1.0,47,0.00,,,0.00,WeatherCatV1.11B39,2013-04-02 08:51:00,
2013-04-02 04:56:00,29.7,12.4,29.86,NW,304,0.0,1.0,48,0.00,,,0.00,WeatherCatV1.11B39,2013-04-02 08:56:00,
2013-04-02 05:01:00,29.7,12.4,29.86,SW,235,0.0,2.0,48,0.00,,,0.00,WeatherCatV1.11B39,2013-04-02 09:01:00,
2013-04-02 05:06:00,29.7,12.4,29.86,SSW,204,0.0,4.0,48,0.00,,,0.00,WeatherCatV1.11B39,2013-04-02 09:06:00,
2013-04-02 05:11:00,29.6,12.8,29.86,SSE,162,0.0,1.0,49,0.00,,,0.00,WeatherCatV1.11B39,2013-04-02 09:11:00,
2013-04-02 05:16:00,29.5,12.7,29.86,ENE,77,0.0,0.0,49,0.00,,,0.00,WeatherCatV1.11B39,2013-04-02 09:16:00,
2013-04-02 05:21:00,29.4,12.6,29.86,South,171,3.0,3.0,49,0.00,,,0.00,WeatherCatV1.11B39,2013-04-02 09:21:00,
2013-04-02 05:26:00,29.4,12.6,29.86,WNW,291,0.0,1.0,49,0.00,,,0.00,WeatherCatV1.11B39,2013-04-02 09:26:00,
2013-04-02 05:31:00,29.4,12.6,29.86,WNW,302,0.0,2.0,49,0.00,,,0.00,WeatherCatV1.11B39,2013-04-02 09:31:00,
2013-04-02 05:36:00,29.3,13.0,29.86,SW,228,0.0,1.0,50,0.00,,,0.00,WeatherCatV1.11B39,2013-04-02 09:36:00,
2013-04-02 05:41:00,29.3,13.0,29.87,SW,234,1.0,4.0,50,0.00,,,0.00,WeatherCatV1.11B39,2013-04-02 09:41:00,
2013-04-02 05:46:00,29.3,12.5,29.87,SW,217,0.0,5.0,49,0.00,,,0.00,WeatherCatV1.11B39,2013-04-02 09:46:00,
2013-04-02 05:51:00,29.2,12.9,29.87,SE,139,0.0,4.0,50,0.00,,,0.00,WeatherCatV1.11B39,2013-04-02 09:51:00,
2013-04-02 05:56:00,29.3,13.0,29.87,West,262,0.0,1.0,50,0.00,,,0.00,WeatherCatV1.11B39,2013-04-02 09:56:00,
2013-04-02 06:01:00,29.2,12.9,29.87,NNE,17,0.0,1.0,50,0.00,,,0.00,WeatherCatV1.11B39,2013-04-02 10:01:00,
2013-04-02 06:06:00,29.1,13.3,29.87,SSW,210,1.0,1.0,51,0.00,,,0.00,WeatherCatV1.11B39,2013-04-02 10:06:00,
2013-04-02 06:11:00,29.0,13.2,29.88,SSW,211,5.0,5.0,51,0.00,,,0.00,WeatherCatV1.11B39,2013-04-02 10:11:00,
2013-04-02 06:16:00,29.0,13.2,29.88,SW,236,0.0,0.0,51,0.00,,,0.00,WeatherCatV1.11B39,2013-04-02 10:16:00,
2013-04-02 06:21:00,29.0,13.2,29.88,SSE,153,0.0,5.0,51,0.00,,,0.00,WeatherCatV1.11B39,2013-04-02 10:21:00,
2013-04-02 06:26:00,29.0,13.2,29.88,SSW,200,0.0,0.0,51,0.00,,,0.00,WeatherCatV1.11B39,2013-04-02 10:26:00,
2013-04-02 06:31:00,29.1,13.3,29.88,South,188,0.0,3.0,51,0.00,,,0.00,WeatherCatV1.11B39,2013-04-02 10:31:00,
2013-04-02 06:36:00,29.2,13.4,29.88,SW,215,0.0,4.0,51,0.00,,,0.00,WeatherCatV1.11B39,2013-04-02 10:36:00,
2013-04-02 06:41:00,29.3,13.4,29.88,SW,228,1.0,1.0,51,0.00,,,0.00,WeatherCatV1.11B39,2013-04-02 10:41:00,
2013-04-02 06:46:00,29.4,13.5,29.89,SSW,212,0.0,1.0,51,0.00,,,0.00,WeatherCatV1.11B39,2013-04-02 10:46:00,
2013-04-02 06:51:00,29.5,13.6,29.89,NNE,25,0.0,1.0,51,0.00,,,0.00,WeatherCatV1.11B39,2013-04-02 10:51:00,
2013-04-02 06:56:00,29.6,13.7,29.89,SSW,210,2.0,4.0,51,0.00,,,0.00,WeatherCatV1.11B39,2013-04-02 10:56:00,
2013-04-02 07:01:00,29.7,14.3,29.89,SSW,195,0.0,0.0,52,0.00,,,0.00,WeatherCatV1.11B39,2013-04-02 11:01:00,
2013-04-02 07:06:00,29.8,14.3,29.90,SW,214,1.0,1.0,52,0.00,,,0.00,WeatherCatV1.11B39,2013-04-02 11:06:00,
2013-04-02 07:11:00,30.0,14.5,29.90,SW,214,0.0,1.0,52,0.00,,,0.00,WeatherCatV1.11B39,2013-04-02 11:11:00,
2013-04-02 07:16:00,30.2,14.7,29.90,South,185,0.0,3.0,52,0.00,,,0.00,WeatherCatV1.11B39,2013-04-02 11:16:00,
2013-04-02 07:21:00,30.4,14.9,29.90,SW,215,2.0,2.0,52,0.00,,,0.00,WeatherCatV1.11B39,2013-04-02 11:21:00,
2013-04-02 07:26:00,30.6,14.6,29.90,SSE,150,0.0,4.0,51,0.00,,,0.00,WeatherCatV1.11B39,2013-04-02 11:26:00,
2013-04-02 07:31:00,30.9,14.9,29.90,WSW,238,0.0,4.0,51,0.00,,,0.00,WeatherCatV1.11B39,2013-04-02 11:31:00,
2013-04-02 07:36:00,31.2,15.6,29.90,NE,55,1.0,2.0,52,0.00,,,0.00,WeatherCatV1.11B39,2013-04-02 11:36:00,
2013-04-02 07:41:00,31.4,14.9,29.90,SSE,162,2.0,4.0,50,0.00,,,0.00,WeatherCatV1.11B39,2013-04-02 11:41:00,
2013-04-02 07:46:00,31.6,15.6,29.91,SSW,208,4.0,5.0,51,0.00,,,0.00,WeatherCatV1.11B39,2013-04-02 11:46:00,
2013-04-02 07:51:00,31.8,15.8,29.91,SW,225,4.0,5.0,51,0.00,,,0.00,WeatherCatV1.11B39,2013-04-02 11:51:00,
2013-04-02 07:56:00,32.0,15.9,29.91,SW,217,4.0,6.0,51,0.00,,,0.00,WeatherCatV1.11B39,2013-04-02 11:56:00,
2013-04-02 08:01:00,32.2,16.1,29.91,SW,235,0.0,2.0,51,0.00,,,0.00,WeatherCatV1.11B39,2013-04-02 12:01:00,
2013-04-02 08:06:00,32.7,16.6,29.91,SSW,200,2.0,4.0,51,0.00,,,0.00,WeatherCatV1.11B39,2013-04-02 12:06:00,
2013-04-02 08:11:00,32.9,15.9,29.91,SW,224,3.0,4.0,49,0.00,,,0.00,WeatherCatV1.11B39,2013-04-02 12:11:00,
2013-04-02 08:16:00,32.9,15.9,29.91,SSW,212,5.0,5.0,49,0.00,,,0.00,WeatherCatV1.11B39,2013-04-02 12:16:00,
2013-04-02 08:21:00,33.0,15.5,29.91,SW,217,4.0,8.0,48,0.00,,,0.00,WeatherCatV1.11B39,2013-04-02 12:21:00,
2013-04-02 08:26:00,33.3,16.2,29.91,WSW,243,4.0,6.0,49,0.00,,,0.00,WeatherCatV1.11B39,2013-04-02 12:26:00,
2013-04-02 08:31:00,33.5,16.4,29.91,WSW,244,3.0,3.0,49,0.00,,,0.00,WeatherCatV1.11B39,2013-04-02 12:31:00,
2013-04-02 08:36:00,33.6,16.0,29.91,SE,138,1.0,3.0,48,0.00,,,0.00,WeatherCatV1.11B39,2013-04-02 12:36:00,
2013-04-02 08:41:00,33.7,16.1,29.91,SSE,155,1.0,2.0,48,0.00,,,0.00,WeatherCatV1.11B39,2013-04-02 12:41:00,
2013-04-02 08:46:00,33.8,16.2,29.90,NW,312,1.0,9.0,48,0.00,,,0.00,WeatherCatV1.11B39,2013-04-02 12:46:00,
2013-04-02 08:51:00,34.0,15.9,29.91,SE,135,0.0,5.0,47,0.00,,,0.00,WeatherCatV1.11B39,2013-04-02 12:51:00,
2013-04-02 08:56:00,34.2,16.1,29.91,SW,225,3.0,7.0,47,0.00,,,0.00,WeatherCatV1.11B39,2013-04-02 12:56:00,
2013-04-02 09:01:00,34.3,16.2,29.90,SE,135,0.0,1.0,47,0.00,,,0.00,WeatherCatV1.11B39,2013-04-02 13:01:00,
2013-04-02 09:06:00,34.6,16.9,29.90,SSW,193,5.0,6.0,48,0.00,,,0.00,WeatherCatV1.11B39,2013-04-02 13:06:00,
2013-04-02 09:11:00,34.8,16.2,29.90,SW,227,2.0,6.0,46,0.00,,,0.00,WeatherCatV1.11B39,2013-04-02 13:11:00,
2013-04-02 09:16:00,34.6,16.0,29.90,WSW,246,0.0,5.0,46,0.00,,,0.00,WeatherCatV1.11B39,2013-04-02 13:16:00,
2013-04-02 09:21:00,34.5,15.9,29.90,SE,140,3.0,6.0,46,0.00,,,0.00,WeatherCatV1.11B39,2013-04-02 13:21:00,
2013-04-02 09:26:00,35.1,16.9,29.90,East,93,3.0,3.0,47,0.00,,,0.00,WeatherCatV1.11B39,2013-04-02 13:26:00,
2013-04-02 09:31:00,35.5,15.8,29.90,SSW,198,4.0,6.0,44,0.00,,,0.00,WeatherCatV1.11B39,2013-04-02 13:31:00,
2013-04-02 09:36:00,35.6,15.9,29.90,SE,128,1.0,9.0,44,0.00,,,0.00,WeatherCatV1.11B39,2013-04-02 13:36:00,
2013-04-02 09:41:00,35.9,16.1,29.90,WSW,255,1.0,4.0,44,0.00,,,0.00,WeatherCatV1.11B39,2013-04-02 13:41:00,
2013-04-02 09:46:00,36.1,15.8,29.90,NW,317,1.0,4.0,43,0.00,,,0.00,WeatherCatV1.11B39,2013-04-02 13:46:00,
2013-04-02 09:51:00,36.3,16.5,29.89,SW,215,7.0,9.0,44,0.00,,,0.00,WeatherCatV1.11B39,2013-04-02 13:51:00,
2013-04-02 09:56:00,36.2,14.8,29.90,WNW,287,3.0,13.0,41,0.00,,,0.00,WeatherCatV1.11B39,2013-04-02 13:56:00,
2013-04-02 10:01:00,36.0,15.2,29.90,South,180,1.0,10.0,42,0.00,,,0.00,WeatherCatV1.11B39,2013-04-02 14:01:00,
2013-04-02 10:06:00,36.3,16.5,29.90,West,263,1.0,4.0,44,0.00,,,0.00,WeatherCatV1.11B39,2013-04-02 14:06:00,
2013-04-02 10:11:00,36.1,16.3,29.90,SSW,208,3.0,6.0,44,0.00,,,0.00,WeatherCatV1.11B39,2013-04-02 14:11:00,
2013-04-02 10:16:00,36.1,15.8,29.90,North,4,5.0,5.0,43,0.00,,,0.00,WeatherCatV1.11B39,2013-04-02 14:16:00,
2013-04-02 10:21:00,36.3,16.0,29.90,WSW,243,5.0,6.0,43,0.00,,,0.00,WeatherCatV1.11B39,2013-04-02 14:21:00,
2013-04-02 10:26:00,36.3,14.9,29.90,SW,229,5.0,9.0,41,0.00,,,0.00,WeatherCatV1.11B39,2013-04-02 14:26:00,
2013-04-02 10:31:00,36.1,13.6,29.90,NE,53,3.0,8.0,39,0.00,,,0.00,WeatherCatV1.11B39,2013-04-02 14:31:00,
2013-04-02 10:36:00,36.0,14.0,29.90,NE,36,5.0,7.0,40,0.00,,,0.00,WeatherCatV1.11B39,2013-04-02 14:36:00,
2013-04-02 10:41:00,36.1,14.7,29.90,South,172,3.0,5.0,41,0.00,,,0.00,WeatherCatV1.11B39,2013-04-02 14:41:00,
2013-04-02 10:46:00,36.3,13.2,29.90,NW,314,2.0,6.0,38,0.00,,,0.00,WeatherCatV1.11B39,2013-04-02 14:46:00,
2013-04-02 10:51:00,36.4,13.8,29.90,SW,228,1.0,6.0,39,0.00,,,0.00,WeatherCatV1.11B39,2013-04-02 14:51:00,
2013-04-02 10:56:00,36.8,13.6,29.89,NNE,27,7.0,9.0,38,0.00,,,0.00,WeatherCatV1.11B39,2013-04-02 14:56:00,
2013-04-02 11:01:00,36.7,14.1,29.89,SW,217,6.0,6.0,39,0.00,,,0.00,WeatherCatV1.11B39,2013-04-02 15:01:00,
2013-04-02 11:06:00,37.3,14.6,29.89,SSE,167,1.0,9.0,39,0.00,,,0.00,WeatherCatV1.11B39,2013-04-02 15:06:00,
2013-04-02 11:11:00,38.2,14.2,29.89,NW,309,4.0,4.0,37,0.00,,,0.00,WeatherCatV1.11B39,2013-04-02 15:11:00,
2013-04-02 11:16:00,39.0,14.3,29.89,South,188,6.0,13.0,36,0.00,,,0.00,WeatherCatV1.11B39,2013-04-02 15:16:00,
2013-04-02 11:21:00,38.8,14.2,29.89,SSW,208,1.0,8.0,36,0.00,,,0.00,WeatherCatV1.11B39,2013-04-02 15:21:00,
2013-04-02 11:26:00,38.6,14.0,29.89,SSW,205,4.0,14.0,36,0.00,,,0.00,WeatherCatV1.11B39,2013-04-02 15:26:00,
2013-04-02 11:31:00,38.3,15.5,29.89,NW,312,1.0,4.0,39,0.00,,,0.00,WeatherCatV1.11B39,2013-04-02 15:31:00,
2013-04-02 11:36:00,38.3,15.5,29.89,NNE,19,3.0,7.0,39,0.00,,,0.00,WeatherCatV1.11B39,2013-04-02 15:36:00,
2013-04-02 11:41:00,38.1,14.8,29.89,South,187,3.0,7.0,38,0.00,,,0.00,WeatherCatV1.11B39,2013-04-02 15:41:00,
2013-04-02 11:46:00,38.3,14.9,29.88,South,186,2.0,5.0,38,0.00,,,0.00,WeatherCatV1.11B39,2013-04-02 15:46:00,
2013-04-02 11:51:00,38.4,15.0,29.88,East,92,0.0,7.0,38,0.00,,,0.00,WeatherCatV1.11B39,2013-04-02 15:51:00,
2013-04-02 11:56:00,38.8,13.5,29.88,WSW,252,6.0,7.0,35,0.00,,,0.00,WeatherCatV1.11B39,2013-04-02 15:56:00,
2013-04-02 12:01:00,38.8,13.5,29.88,SSW,205,2.0,6.0,35,0.00,,,0.00,WeatherCatV1.11B39,2013-04-02 16:01:00,
2013-04-02 12:06:00,38.3,13.7,29.88,WNW,296,1.0,4.0,36,0.00,,,0.00,WeatherCatV1.11B39,2013-04-02 16:06:00,
2013-04-02 12:11:00,37.6,13.1,29.88,SSW,205,6.0,7.0,36,0.00,,,0.00,WeatherCatV1.11B39,2013-04-02 16:11:00,
2013-04-02 12:16:00,37.9,14.0,29.88,SSW,211,1.0,6.0,37,0.00,,,0.00,WeatherCatV1.11B39,2013-04-02 16:16:00,
2013-04-02 12:21:00,38.3,13.7,29.88,SW,234,4.0,6.0,36,0.00,,,0.00,WeatherCatV1.11B39,2013-04-02 16:21:00,
2013-04-02 12:26:00,38.0,14.7,29.88,SW,218,5.0,5.0,38,0.00,,,0.00,WeatherCatV1.11B39,2013-04-02 16:26:00,
2013-04-02 12:31:00,38.8,15.4,29.88,SE,134,2.0,10.0,38,0.00,,,0.00,WeatherCatV1.11B39,2013-04-02 16:31:00,
2013-04-02 12:36:00,38.9,14.2,29.88,SSW,201,3.0,13.0,36,0.00,,,0.00,WeatherCatV1.11B39,2013-04-02 16:36:00,
2013-04-02 12:41:00,37.9,14.6,29.88,North,351,3.0,11.0,38,0.00,,,0.00,WeatherCatV1.11B39,2013-04-02 16:41:00,
2013-04-02 12:46:00,37.5,13.0,29.88,South,188,4.0,10.0,36,0.00,,,0.00,WeatherCatV1.11B39,2013-04-02 16:46:00,
2013-04-02 12:51:00,37.8,14.5,29.87,SW,217,3.0,8.0,38,0.00,,,0.00,WeatherCatV1.11B39,2013-04-02 16:51:00,
2013-04-02 12:56:00,38.0,13.4,29.87,SSW,208,1.0,9.0,36,0.00,,,0.00,WeatherCatV1.11B39,2013-04-02 16:56:00,
2013-04-02 13:01:00,37.8,15.1,29.87,SW,214,2.0,6.0,39,0.00,,,0.00,WeatherCatV1.11B39,2013-04-02 17:01:00,
2013-04-02 13:06:00,37.7,14.4,29.87,NE,42,7.0,7.0,38,0.00,,,0.00,WeatherCatV1.11B39,2013-04-02 17:06:00,
2013-04-02 13:11:00,38.5,13.3,29.87,SSW,199,4.0,11.0,35,0.00,,,0.00,WeatherCatV1.11B39,2013-04-02 17:11:00,
2013-04-02 13:16:00,38.7,13.4,29.86,ENE,58,2.0,10.0,35,0.00,,,0.00,WeatherCatV1.11B39,2013-04-02 17:16:00,
2013-04-02 13:21:00,39.0,13.7,29.86,SW,228,2.0,7.0,35,0.00,,,0.00,WeatherCatV1.11B39,2013-04-02 17:21:00,
2013-04-02 13:26:00,39.2,13.9,29.86,SSW,210,2.0,6.0,35,0.00,,,0.00,WeatherCatV1.11B39,2013-04-02 17:26:00,
2013-04-02 13:31:00,39.4,12.7,29.86,ENE,63,3.0,8.0,33,0.00,,,0.00,WeatherCatV1.11B39,2013-04-02 17:31:00,
2013-04-02 13:36:00,39.8,13.1,29.86,SW,226,4.0,9.0,33,0.00,,,0.00,WeatherCatV1.11B39,2013-04-02 17:36:00,
2013-04-02 13:41:00,39.9,13.8,29.86,East,82,1.0,5.0,34,0.00,,,0.00,WeatherCatV1.11B39,2013-04-02 17:41:00,
2013-04-02 13:46:00,39.8,13.1,29.85,NNE,29,4.0,9.0,33,0.00,,,0.00,WeatherCatV1.11B39,2013-04-02 17:46:00,
2013-04-02 13:51:00,39.9,13.8,29.85,East,93,3.0,8.0,34,0.00,,,0.00,WeatherCatV1.11B39,2013-04-02 17:51:00,
2013-04-02 13:56:00,40.2,14.1,29.86,SSE,167,4.0,6.0,34,0.00,,,0.00,WeatherCatV1.11B39,2013-04-02 17:56:00,
2013-04-02 14:01:00,40.4,14.3,29.85,ENE,74,4.0,15.0,34,0.00,,,0.00,WeatherCatV1.11B39,2013-04-02 18:01:00,
2013-04-02 14:06:00,40.9,13.3,29.85,NE,37,4.0,6.0,32,0.00,,,0.00,WeatherCatV1.11B39,2013-04-02 18:06:00,
2013-04-02 14:11:00,41.1,13.5,29.85,South,173,0.0,10.0,32,0.00,,,0.00,WeatherCatV1.11B39,2013-04-02 18:11:00,
2013-04-02 14:16:00,41.3,11.5,29.85,SW,229,7.0,20.0,29,0.00,,,0.00,WeatherCatV1.11B39,2013-04-02 18:16:00,
2013-04-02 14:21:00,41.1,12.1,29.85,West,271,7.0,10.0,30,0.00,,,0.00,WeatherCatV1.11B39,2013-04-02 18:21:00,
2013-04-02 14:26:00,41.7,12.6,29.84,South,172,3.0,12.0,30,0.00,,,0.00,WeatherCatV1.11B39,2013-04-02 18:26:00,
2013-04-02 14:31:00,42.1,12.9,29.85,SW,225,4.0,6.0,30,0.00,,,0.00,WeatherCatV1.11B39,2013-04-02 18:31:00,
2013-04-02 14:36:00,41.8,12.7,29.85,WSW,239,1.0,10.0,30,0.00,,,0.00,WeatherCatV1.11B39,2013-04-02 18:36:00,
2013-04-02 14:41:00,42.1,13.7,29.84,WSW,248,3.0,6.0,31,0.00,,,0.00,WeatherCatV1.11B39,2013-04-02 18:41:00,
2013-04-02 14:46:00,42.4,12.4,29.85,South,191,3.0,14.0,29,0.00,,,0.00,WeatherCatV1.11B39,2013-04-02 18:46:00,
2013-04-02 14:51:00,42.0,12.8,29.84,NE,49,4.0,6.0,30,0.00,,,0.00,WeatherCatV1.11B39,2013-04-02 18:51:00,
2013-04-02 14:56:00,41.5,12.4,29.85,North,6,2.0,6.0,30,0.00,,,0.00,WeatherCatV1.11B39,2013-04-02 18:56:00,
2013-04-02 15:01:00,41.0,13.4,29.85,SSW,207,1.0,4.0,32,0.00,,,0.00,WeatherCatV1.11B39,2013-04-02 19:01:00,
2013-04-02 15:06:00,40.7,13.2,29.84,NNE,30,1.0,4.0,32,0.00,,,0.00,WeatherCatV1.11B39,2013-04-02 19:06:00,
2013-04-02 15:11:00,41.0,12.0,29.84,South,190,3.0,11.0,30,0.00,,,0.00,WeatherCatV1.11B39,2013-04-02 19:11:00,
2013-04-02 15:16:00,41.7,12.6,29.84,SW,232,7.0,17.0,30,0.00,,,0.00,WeatherCatV1.11B39,2013-04-02 19:16:00,
2013-04-02 15:21:00,40.9,12.6,29.84,NNE,12,3.0,9.0,31,0.00,,,0.00,WeatherCatV1.11B39,2013-04-02 19:21:00,
2013-04-02 15:26:00,40.9,12.6,29.84,SW,214,3.0,9.0,31,0.00,,,0.00,WeatherCatV1.11B39,2013-04-02 19:26:00,
2013-04-02 15:31:00,41.5,13.9,29.84,SW,218,1.0,4.0,32,0.00,,,0.00,WeatherCatV1.11B39,2013-04-02 19:31:00,
2013-04-02 15:36:00,41.7,14.0,29.84,NNW,335,2.0,4.0,32,0.00,,,0.00,WeatherCatV1.11B39,2013-04-02 19:36:00,
2013-04-02 15:41:00,41.2,12.9,29.84,North,6,1.0,6.0,31,0.00,,,0.00,WeatherCatV1.11B39,2013-04-02 19:41:00,
2013-04-02 15:46:00,41.2,13.6,29.84,WSW,245,9.0,10.0,32,0.00,,,0.00,WeatherCatV1.11B39,2013-04-02 19:46:00,
2013-04-02 15:51:00,40.5,11.5,29.84,NNW,341,4.0,9.0,30,0.00,,,0.00,WeatherCatV1.11B39,2013-04-02 19:51:00,
2013-04-02 15:56:00,39.9,11.7,29.84,ESE,122,2.0,6.0,31,0.00,,,0.00,WeatherCatV1.11B39,2013-04-02 19:56:00,
2013-04-02 16:01:00,39.6,12.9,29.84,WNW,284,3.0,5.0,33,0.00,,,0.00,WeatherCatV1.11B39,2013-04-02 20:01:00,
2013-04-02 16:06:00,39.7,12.3,29.84,NNE,12,5.0,11.0,32,0.00,,,0.00,WeatherCatV1.11B39,2013-04-02 20:06:00,
2013-04-02 16:11:00,40.8,13.3,29.84,SW,221,7.0,14.0,32,0.00,,,0.00,WeatherCatV1.11B39,2013-04-02 20:11:00,
2013-04-02 16:16:00,40.3,12.8,29.84,SW,214,0.0,4.0,32,0.00,,,0.00,WeatherCatV1.11B39,2013-04-02 20:16:00,
2013-04-02 16:21:00,40.0,11.1,29.85,ESE,106,4.0,9.0,30,0.00,,,0.00,WeatherCatV1.11B39,2013-04-02 20:21:00,
2013-04-02 16:26:00,39.9,12.5,29.85,NNW,329,3.0,7.0,32,0.00,,,0.00,WeatherCatV1.11B39,2013-04-02 20:26:00,
2013-04-02 16:31:00,40.4,12.2,29.85,WSW,243,1.0,13.0,31,0.00,,,0.00,WeatherCatV1.11B39,2013-04-02 20:31:00,
2013-04-02 16:36:00,40.1,10.4,29.85,SW,225,6.0,16.0,29,0.00,,,0.00,WeatherCatV1.11B39,2013-04-02 20:36:00,
2013-04-02 16:41:00,40.4,12.2,29.85,East,80,4.0,4.0,31,0.00,,,0.00,WeatherCatV1.11B39,2013-04-02 20:41:00,
2013-04-02 16:46:00,40.6,11.6,29.85,NNW,348,2.0,8.0,30,0.00,,,0.00,WeatherCatV1.11B39,2013-04-02 20:46:00,
2013-04-02 16:51:00,39.8,10.9,29.85,West,276,3.0,8.0,30,0.00,,,0.00,WeatherCatV1.11B39,2013-04-02 20:51:00,
2013-04-02 16:56:00,40.3,9.8,29.85,SSE,165,3.0,12.0,28,0.00,,,0.00,WeatherCatV1.11B39,2013-04-02 20:56:00,
2013-04-02 17:01:00,40.4,9.1,29.86,SSE,153,2.0,7.0,27,0.00,,,0.00,WeatherCatV1.11B39,2013-04-02 21:01:00,
2013-04-02 17:06:00,39.4,9.0,29.86,NW,323,1.0,5.0,28,0.00,,,0.00,WeatherCatV1.11B39,2013-04-02 21:06:00,
2013-04-02 17:11:00,39.2,9.6,29.86,NNW,339,3.0,5.0,29,0.00,,,0.00,WeatherCatV1.11B39,2013-04-02 21:11:00,
2013-04-02 17:16:00,39.9,10.3,29.87,NNW,330,3.0,10.0,29,0.00,,,0.00,WeatherCatV1.11B39,2013-04-02 21:16:00,
2013-04-02 17:21:00,39.7,9.3,29.87,North,6,1.0,12.0,28,0.00,,,0.00,WeatherCatV1.11B39,2013-04-02 21:21:00,
2013-04-02 17:26:00,40.0,10.3,29.87,NE,36,3.0,8.0,29,0.00,,,0.00,WeatherCatV1.11B39,2013-04-02 21:26:00,
2013-04-02 17:31:00,40.1,10.4,29.87,ENE,63,2.0,9.0,29,0.00,,,0.00,WeatherCatV1.11B39,2013-04-02 21:31:00,
2013-04-02 17:36:00,39.9,10.3,29.87,SSW,195,5.0,12.0,29,0.00,,,0.00,WeatherCatV1.11B39,2013-04-02 21:36:00,
2013-04-02 17:41:00,39.5,10.7,29.88,South,169,0.0,5.0,30,0.00,,,0.00,WeatherCatV1.11B39,2013-04-02 21:41:00,
2013-04-02 17:46:00,39.0,10.2,29.87,SW,231,7.0,8.0,30,0.00,,,0.00,WeatherCatV1.11B39,2013-04-02 21:46:00,
2013-04-02 17:51:00,38.4,10.4,29.87,South,174,1.0,6.0,31,0.00,,,0.00,WeatherCatV1.11B39,2013-04-02 21:51:00,
2013-04-02 17:56:00,38.2,10.3,29.87,South,171,3.0,6.0,31,0.00,,,0.00,WeatherCatV1.11B39,2013-04-02 21:56:00,
2013-04-02 18:01:00,38.0,10.1,29.88,SSW,201,2.0,5.0,31,0.00,,,0.00,WeatherCatV1.11B39,2013-04-02 22:01:00,
2013-04-02 18:06:00,37.8,9.9,29.88,NNE,29,1.0,5.0,31,0.00,,,0.00,WeatherCatV1.11B39,2013-04-02 22:06:00,
2013-04-02 18:11:00,37.7,10.5,29.89,NNW,329,3.0,7.0,32,0.00,,,0.00,WeatherCatV1.11B39,2013-04-02 22:11:00,
2013-04-02 18:16:00,37.4,10.3,29.89,South,187,6.0,11.0,32,0.00,,,0.00,WeatherCatV1.11B39,2013-04-02 22:16:00,
2013-04-02 18:21:00,37.2,10.8,29.89,SSW,213,2.0,4.0,33,0.00,,,0.00,WeatherCatV1.11B39,2013-04-02 22:21:00,
2013-04-02 18:26:00,37.3,11.5,29.89,SE,131,2.0,8.0,34,0.00,,,0.00,WeatherCatV1.11B39,2013-04-02 22:26:00,
2013-04-02 18:31:00,37.1,10.7,29.89,South,178,2.0,6.0,33,0.00,,,0.00,WeatherCatV1.11B39,2013-04-02 22:31:00,
2013-04-02 18:36:00,36.9,11.2,29.89,SW,232,2.0,5.0,34,0.00,,,0.00,WeatherCatV1.11B39,2013-04-02 22:36:00,
2013-04-02 18:41:00,36.6,10.2,29.90,North,5,4.0,8.0,33,0.00,,,0.00,WeatherCatV1.11B39,2013-04-02 22:41:00,
2013-04-02 18:46:00,36.3,10.0,29.90,NNW,348,3.0,8.0,33,0.00,,,0.00,WeatherCatV1.11B39,2013-04-02 22:46:00,
2013-04-02 18:51:00,36.1,9.8,29.91,SSW,193,7.0,10.0,33,0.00,,,0.00,WeatherCatV1.11B39,2013-04-02 22:51:00,
2013-04-02 18:56:00,35.9,8.9,29.91,North,349,1.0,8.0,32,0.00,,,0.00,WeatherCatV1.11B39,2013-04-02 22:56:00,
2013-04-02 19:01:00,35.7,9.5,29.91,NNW,330,2.0,6.0,33,0.00,,,0.00,WeatherCatV1.11B39,2013-04-02 23:01:00,
2013-04-02 19:06:00,35.6,10.0,29.91,South,190,6.0,7.0,34,0.00,,,0.00,WeatherCatV1.11B39,2013-04-02 23:06:00,
2013-04-02 19:11:00,35.5,9.9,29.91,NNE,22,4.0,4.0,34,0.00,,,0.00,WeatherCatV1.11B39,2013-04-02 23:11:00,
2013-04-02 19:16:00,35.3,10.4,29.91,WSW,242,6.0,7.0,35,0.00,,,0.00,WeatherCatV1.11B39,2013-04-02 23:16:00,
2013-04-02 19:21:00,35.3,10.4,29.91,SW,233,0.0,3.0,35,0.00,,,0.00,WeatherCatV1.11B39,2013-04-02 23:21:00,
2013-04-02 19:26:00,35.2,9.7,29.91,NNW,335,1.0,8.0,34,0.00,,,0.00,WeatherCatV1.11B39,2013-04-02 23:26:00,
2013-04-02 19:31:00,35.2,9.7,29.92,SSW,205,3.0,7.0,34,0.00,,,0.00,WeatherCatV1.11B39,2013-04-02 23:31:00,
2013-04-02 19:36:00,35.2,9.7,29.92,North,359,1.0,6.0,34,0.00,,,0.00,WeatherCatV1.11B39,2013-04-02 23:36:00,
2013-04-02 19:41:00,35.2,9.7,29.92,South,174,1.0,6.0,34,0.00,,,0.00,WeatherCatV1.11B39,2013-04-02 23:41:00,
2013-04-02 19:46:00,35.2,10.3,29.92,SW,232,8.0,12.0,35,0.00,,,0.00,WeatherCatV1.11B39,2013-04-02 23:46:00,
2013-04-02 19:51:00,35.2,10.3,29.92,North,6,2.0,10.0,35,0.00,,,0.00,WeatherCatV1.11B39,2013-04-02 23:51:00,
2013-04-02 19:56:00,35.2,11.0,29.92,South,172,2.0,4.0,36,0.00,,,0.00,WeatherCatV1.11B39,2013-04-02 23:56:00,
2013-04-02 20:01:00,35.1,10.9,29.93,South,184,2.0,8.0,36,0.00,,,0.00,WeatherCatV1.11B39,2013-04-03 00:01:00,
2013-04-02 20:06:00,35.0,10.8,29.93,NE,51,1.0,11.0,36,0.00,,,0.00,WeatherCatV1.11B39,2013-04-03 00:06:00,
2013-04-02 20:11:00,35.0,10.1,29.93,WSW,240,13.0,13.0,35,0.00,,,0.00,WeatherCatV1.11B39,2013-04-03 00:11:00,
2013-04-02 20:16:00,35.0,10.1,29.94,South,181,1.0,4.0,35,0.00,,,0.00,WeatherCatV1.11B39,2013-04-03 00:16:00,
2013-04-02 20:21:00,34.8,10.0,29.94,South,187,2.0,9.0,35,0.00,,,0.00,WeatherCatV1.11B39,2013-04-03 00:21:00,
2013-04-02 20:26:00,34.7,10.5,29.94,ENE,63,0.0,7.0,36,0.00,,,0.00,WeatherCatV1.11B39,2013-04-03 00:26:00,
2013-04-02 20:31:00,34.6,10.4,29.94,NNW,343,2.0,7.0,36,0.00,,,0.00,WeatherCatV1.11B39,2013-04-03 00:31:00,
2013-04-02 20:36:00,34.5,10.3,29.94,SSW,208,0.0,1.0,36,0.00,,,0.00,WeatherCatV1.11B39,2013-04-03 00:36:00,
2013-04-02 20:41:00,34.4,10.9,29.95,SSE,166,2.0,6.0,37,0.00,,,0.00,WeatherCatV1.11B39,2013-04-03 00:41:00,
2013-04-02 20:46:00,34.3,10.8,29.95,SW,236,1.0,4.0,37,0.00,,,0.00,WeatherCatV1.11B39,2013-04-03 00:46:00,
2013-04-02 20:51:00,34.2,11.3,29.95,North,349,1.0,2.0,38,0.00,,,0.00,WeatherCatV1.11B39,2013-04-03 00:51:00,
2013-04-02 20:56:00,34.1,11.2,29.95,NNE,30,2.0,5.0,38,0.00,,,0.00,WeatherCatV1.11B39,2013-04-03 00:56:00,
2013-04-02 21:01:00,34.1,11.8,29.95,SW,218,1.0,5.0,39,0.00,,,0.00,WeatherCatV1.11B39,2013-04-03 01:01:00,
2013-04-02 21:06:00,34.1,11.8,29.95,SSW,197,5.0,6.0,39,0.00,,,0.00,WeatherCatV1.11B39,2013-04-03 01:06:00,
2013-04-02 21:11:00,34.1,12.3,29.95,SSW,195,1.0,5.0,40,0.00,,,0.00,WeatherCatV1.11B39,2013-04-03 01:11:00,
2013-04-02 21:16:00,34.1,12.3,29.95,SW,232,6.0,6.0,40,0.00,,,0.00,WeatherCatV1.11B39,2013-04-03 01:16:00,
2013-04-02 21:21:00,34.2,12.4,29.95,South,173,3.0,6.0,40,0.00,,,0.00,WeatherCatV1.11B39,2013-04-03 01:21:00,
2013-04-02 21:26:00,34.1,12.9,29.95,SSE,156,2.0,5.0,41,0.00,,,0.00,WeatherCatV1.11B39,2013-04-03 01:26:00,
2013-04-02 21:31:00,34.0,12.2,29.96,ESE,112,1.0,4.0,40,0.00,,,0.00,WeatherCatV1.11B39,2013-04-03 01:31:00,
2013-04-02 21:36:00,34.0,12.8,29.96,SSW,198,1.0,8.0,41,0.00,,,0.00,WeatherCatV1.11B39,2013-04-03 01:36:00,
2013-04-02 21:41:00,33.9,12.7,29.96,SSE,166,0.0,8.0,41,0.00,,,0.00,WeatherCatV1.11B39,2013-04-03 01:41:00,
2013-04-02 21:46:00,33.8,12.6,29.96,WSW,258,4.0,8.0,41,0.00,,,0.00,WeatherCatV1.11B39,2013-04-03 01:46:00,
2013-04-02 21:51:00,33.9,12.7,29.96,WSW,239,7.0,7.0,41,0.00,,,0.00,WeatherCatV1.11B39,2013-04-03 01:51:00,
2013-04-02 21:56:00,33.8,13.2,29.96,WSW,255,2.0,6.0,42,0.00,,,0.00,WeatherCatV1.11B39,2013-04-03 01:56:00,
2013-04-02 22:01:00,33.8,13.2,29.95,SW,234,0.0,2.0,42,0.00,,,0.00,WeatherCatV1.11B39,2013-04-03 02:01:00,
2013-04-02 22:06:00,33.7,13.1,29.95,WSW,239,0.0,8.0,42,0.00,,,0.00,WeatherCatV1.11B39,2013-04-03 02:06:00,
2013-04-02 22:11:00,33.6,13.5,29.95,ESE,113,1.0,4.0,43,0.00,,,0.00,WeatherCatV1.11B39,2013-04-03 02:11:00,
2013-04-02 22:16:00,33.5,13.4,29.95,SSE,159,1.0,4.0,43,0.00,,,0.00,WeatherCatV1.11B39,2013-04-03 02:16:00,
2013-04-02 22:21:00,33.4,13.9,29.95,WSW,257,0.0,6.0,44,0.00,,,0.00,WeatherCatV1.11B39,2013-04-03 02:21:00,
2013-04-02 22:26:00,33.2,13.7,29.95,South,176,2.0,5.0,44,0.00,,,0.00,WeatherCatV1.11B39,2013-04-03 02:26:00,
2013-04-02 22:31:00,33.2,14.2,29.95,SSE,162,0.0,2.0,45,0.00,,,0.00,WeatherCatV1.11B39,2013-04-03 02:31:00,
2013-04-02 22:36:00,33.1,14.1,29.95,South,187,2.0,4.0,45,0.00,,,0.00,WeatherCatV1.11B39,2013-04-03 02:36:00,
2013-04-02 22:41:00,33.1,14.1,29.95,SW,219,2.0,2.0,45,0.00,,,0.00,WeatherCatV1.11B39,2013-04-03 02:41:00,
2013-04-02 22:46:00,33.0,14.0,29.95,South,184,0.0,0.0,45,0.00,,,0.00,WeatherCatV1.11B39,2013-04-03 02:46:00,
2013-04-02 22:51:00,33.0,14.0,29.95,SW,217,2.0,2.0,45,0.00,,,0.00,WeatherCatV1.11B39,2013-04-03 02:51:00,
2013-04-02 22:56:00,33.1,14.1,29.95,SSW,207,0.0,5.0,45,0.00,,,0.00,WeatherCatV1.11B39,2013-04-03 02:56:00,
2013-04-02 23:01:00,33.1,14.6,29.95,WSW,254,2.0,2.0,46,0.00,,,0.00,WeatherCatV1.11B39,2013-04-03 03:01:00,
2013-04-02 23:06:00,33.1,14.6,29.95,NW,320,0.0,3.0,46,0.00,,,0.00,WeatherCatV1.11B39,2013-04-03 03:06:00,
2013-04-02 23:11:00,33.1,14.6,29.95,SSW,200,1.0,3.0,46,0.00,,,0.00,WeatherCatV1.11B39,2013-04-03 03:11:00,
2013-04-02 23:16:00,33.1,15.1,29.95,WSW,238,3.0,5.0,47,0.00,,,0.00,WeatherCatV1.11B39,2013-04-03 03:16:00,
2013-04-02 23:21:00,33.0,15.0,29.95,SW,215,3.0,3.0,47,0.00,,,0.00,WeatherCatV1.11B39,2013-04-03 03:21:00,
2013-04-02 23:26:00,33.0,15.0,29.95,West,263,1.0,3.0,47,0.00,,,0.00,WeatherCatV1.11B39,2013-04-03 03:26:00,
2013-04-02 23:31:00,33.0,14.5,29.95,NNE,22,2.0,6.0,46,0.00,,,0.00,WeatherCatV1.11B39,2013-04-03 03:31:00,
2013-04-02 23:36:00,33.0,14.5,29.95,NE,39,1.0,8.0,46,0.00,,,0.00,WeatherCatV1.11B39,2013-04-03 03:36:00,
2013-04-02 23:41:00,33.1,14.6,29.95,NNW,328,3.0,4.0,46,0.00,,,0.00,WeatherCatV1.11B39,2013-04-03 03:41:00,
2013-04-02 23:46:00,33.1,14.1,29.95,SSE,152,0.0,5.0,45,0.00,,,0.00,WeatherCatV1.11B39,2013-04-03 03:46:00,
2013-04-02 23:51:00,33.1,14.1,29.95,NNW,346,4.0,7.0,45,0.00,,,0.00,WeatherCatV1.11B39,2013-04-03 03:51:00,
2013-04-02 23:56:00,33.1,14.1,29.95,SSW,210,3.0,6.0,45,0.00,,,0.00,WeatherCatV1.11B39,2013-04-03 03:56:00,